WA7SB-7 Weather Reports


Display with metric or nautical units.
time (UTC)temp
F
wind
direction
speed
MPH
gust
MPH
rain 1hr
in
rain 24hr
in
rain mn
in
humidity
%
barometer
mb
20260504050533 53 169 0.0 0.0 0.00 0.00 0.00 93 1012.6
20260504050414 53 40 0.0 0.0 0.00 0.00 0.00 93 1012.6
20260504050023 53 167 0.0 0.0 0.00 0.00 0.00 93 1012.7
20260504045924 53 269 0.0 0.0 0.00 0.00 0.00 93 1012.6
20260504045526 53 263 0.0 0.0 0.00 0.00 0.00 93 1012.5
20260504045428 53 82 0.0 0.0 0.00 0.00 0.00 93 1012.6
20260504045027 53 312 0.0 0.0 0.00 0.00 0.00 93 1012.4
20260504044929 53 65 0.0 0.0 0.00 0.00 0.00 93 1012.5
20260504044527 53 343 0.0 0.0 0.00 0.00 0.00 93 1012.4
20260504044430 53 126 0.0 0.0 0.00 0.00 0.00 93 1012.4
20260504044030 53 109 0.0 0.0 0.00 0.00 0.00 93 1012.3
20260504043912 53 75 0.0 0.0 0.00 0.00 0.00 93 1012.1
20260504043515 53 290 0.0 0.0 0.00 0.00 0.00 93 1012.2
20260504043433 53 72 0.0 0.0 0.00 0.00 0.00 93 1012.2
20260504043031 53 78 0.0 0.0 0.00 0.00 0.00 93 1012.1
20260504042932 53 165 0.0 0.0 0.00 0.00 0.00 93 1012.0
20260504042531 53 303 0.0 0.0 0.00 0.00 0.00 93 1012.1
20260504042431 53 257 0.0 0.0 0.00 0.00 0.00 93 1012.0
20260504042029 53 353 0.0 0.0 0.00 0.00 0.00 93 1012.1
20260504041934 53 176 0.0 0.0 0.00 0.00 0.00 93 1012.1
20260504041530 53 97 0.0 0.0 0.00 0.00 0.00 93 1012.0
20260504041416 53 314 0.0 0.0 0.00 0.00 0.00 93 1012.1
20260504041031 53 342 0.0 0.0 0.00 0.00 0.00 93 1012.0
20260504040917 53 297 0.0 0.0 0.00 0.00 0.00 93 1012.0
20260504040514 53 150 0.0 0.0 0.00 0.00 0.00 93 1012.0
20260504040415 53 226 0.0 0.0 0.00 0.00 0.00 93 1012.0
20260504040026 53 288 0.0 0.0 0.00 0.00 0.00 93 1011.9
20260504035927 53 39 0.0 0.0 0.00 0.00 0.00 93 1011.8
20260504035526 53 319 0.0 0.0 0.00 0.00 0.00 93 1011.9
20260504035426 53 65 0.0 0.0 0.00 0.00 0.00 93 1011.8
20260504035028 53 302 0.0 0.0 0.00 0.00 0.00 93 1011.8
20260504034927 53 248 0.0 0.0 0.00 0.00 0.00 93 1011.8
20260504034524 53 315 0.0 0.0 0.00 0.00 0.00 93 1011.7
20260504034427 52 241 0.0 0.0 0.00 0.00 0.00 93 1011.7
20260504034027 53 172 0.0 0.0 0.00 0.00 0.00 93 1011.7
20260504033929 52 314 0.0 0.0 0.00 0.00 0.00 93 1011.7
20260504033532 53 16 0.0 0.0 0.00 0.00 0.00 93 1011.6
20260504033432 52 269 0.0 0.0 0.00 0.00 0.00 93 1011.6
20260504033031 52 244 0.0 0.0 0.00 0.00 0.00 93 1011.6
20260504032931 52 56 0.0 0.0 0.00 0.00 0.00 92 1011.7
20260504032532 52 182 0.0 0.0 0.00 0.00 0.00 92 1011.5
20260504032415 52 139 0.0 0.0 0.00 0.00 0.00 92 1011.5
20260504032016 52 149 0.0 0.0 0.00 0.00 0.00 92 1011.4
20260504031938 52 233 0.0 0.0 0.00 0.00 0.00 92 1011.4
20260504031533 52 73 0.0 0.0 0.00 0.00 0.00 92 1011.4
20260504031419 52 291 0.0 0.0 0.00 0.00 0.00 92 1011.5
20260504031015 52 103 0.0 0.0 0.00 0.00 0.00 92 1011.5
20260504030919 52 2 0.0 0.0 0.00 0.00 0.00 92 1011.4
20260504030515 52 44 0.0 0.0 0.00 0.00 0.00 92 1011.4
20260504030413 52 312 0.0 0.0 0.00 0.00 0.00 92 1011.5
20260504030022 52 80 0.0 0.0 0.00 0.00 0.00 92 1011.4
20260504025921 52 146 0.0 0.0 0.00 0.00 0.00 92 1011.4
20260504025522 52 179 0.0 0.0 0.00 0.00 0.00 92 1011.3
20260504025424 52 1 0.0 0.0 0.00 0.00 0.00 92 1011.3
20260504025025 52 65 0.0 0.0 0.00 0.00 0.00 92 1011.2
20260504024924 52 254 0.0 0.0 0.00 0.00 0.00 92 1011.3
20260504024522 52 322 0.0 0.0 0.00 0.00 0.00 92 1011.2
20260504024424 52 245 0.0 0.0 0.00 0.00 0.00 92 1011.2
20260504024027 52 250 0.0 0.0 0.00 0.00 0.00 92 1011.1
20260504023928 52 283 0.0 0.0 0.00 0.00 0.00 92 1011.1
20260504023527 52 95 0.0 0.0 0.00 0.00 0.00 92 1011.2
20260504023428 52 337 0.0 0.0 0.00 0.00 0.00 92 1011.1
20260504023028 52 124 0.0 0.0 0.00 0.00 0.00 91 1011.1
20260504022929 52 81 0.0 0.0 0.00 0.00 0.00 92 1011.1
20260504022527 52 68 0.0 0.0 0.00 0.00 0.00 91 1011.1
20260504022427 52 128 0.0 0.0 0.00 0.00 0.00 91 1011.1
20260504022027 52 276 0.0 0.0 0.00 0.00 0.00 91 1011.0
20260504021928 52 271 0.0 0.0 0.00 0.00 0.00 91 1011.1
20260504021527 52 305 0.0 0.0 0.00 0.00 0.00 91 1011.0
20260504021432 52 337 0.0 0.0 0.00 0.00 0.00 91 1010.9
20260504021029 53 82 0.0 0.0 0.00 0.00 0.00 91 1010.9
20260504020933 53 340 0.0 0.0 0.00 0.00 0.00 91 1010.8
20260504020530 53 301 0.0 0.0 0.00 0.00 0.00 91 1010.8
20260504020427 53 296 0.0 0.0 0.00 0.00 0.00 91 1010.8
20260504020019 53 340 0.0 0.0 0.00 0.00 0.00 91 1010.7
20260504015921 53 63 0.0 0.0 0.00 0.00 0.00 91 1010.8
20260504015523 53 54 0.0 0.0 0.00 0.00 0.00 90 1010.7
20260504015424 53 167 0.0 0.0 0.00 0.00 0.00 90 1010.8
20260504015025 53 321 0.0 0.0 0.00 0.00 0.00 90 1010.6
20260504014926 53 302 0.0 0.0 0.00 0.00 0.00 90 1010.7
20260504014523 53 63 0.0 0.0 0.00 0.00 0.00 90 1010.6
20260504014424 53 215 0.0 0.0 0.00 0.00 0.00 90 1010.7
20260504014023 53 337 0.0 0.0 0.00 0.00 0.00 90 1010.7
20260504013924 53 80 0.0 0.0 0.00 0.00 0.00 90 1010.7
20260504013527 53 311 0.0 0.0 0.00 0.00 0.00 90 1010.6
20260504013427 53 101 0.0 0.0 0.00 0.00 0.00 90 1010.6
20260504013030 53 352 0.0 0.0 0.00 0.00 0.00 89 1010.5
20260504012927 53 289 0.0 0.0 0.00 0.00 0.00 89 1010.5
20260504012527 53 118 0.0 0.0 0.00 0.00 0.00 89 1010.6
20260504012427 53 257 0.0 0.0 0.00 0.00 0.00 89 1010.5
20260504012025 54 38 0.0 0.0 0.00 0.00 0.00 89 1010.5
20260504011925 54 347 0.0 0.0 0.00 0.00 0.00 88 1010.5
20260504011524 54 327 0.0 0.0 0.00 0.00 0.00 88 1010.4
20260504011424 54 184 0.0 0.0 0.00 0.00 0.00 88 1010.4
20260504011021 54 293 0.0 0.0 0.00 0.00 0.00 88 1010.3
20260504010924 54 333 0.0 0.0 0.00 0.00 0.00 88 1010.2
20260504010520 54 249 0.0 0.0 0.00 0.00 0.00 88 1010.2
20260504010425 54 207 0.0 0.0 0.00 0.00 0.00 88 1010.2
20260504010032 55 109 0.0 0.0 0.00 0.00 0.00 88 1010.3
20260504005935 55 299 0.0 0.0 0.00 0.00 0.00 88 1010.3
20260504005533 55 91 0.0 0.0 0.00 0.00 0.00 87 1010.2
20260504005413 55 309 0.0 0.0 0.00 0.00 0.00 87 1010.3
20260504005039 55 75 0.0 0.0 0.00 0.00 0.00 88 1010.1
20260504004518 55 305 0.0 0.0 0.00 0.00 0.00 88 1010.0
20260504004421 55 239 0.0 0.0 0.00 0.00 0.00 88 1010.0
20260504004020 55 313 0.0 0.0 0.00 0.00 0.00 87 1010.2
20260504003920 55 283 0.0 0.0 0.00 0.00 0.00 87 1010.1
20260504003519 55 281 0.0 0.0 0.00 0.00 0.00 87 1010.1
20260504003420 55 302 0.0 0.0 0.00 0.00 0.00 87 1010.2
20260504003017 55 164 0.0 0.0 0.00 0.00 0.00 87 1010.2
20260504002918 55 334 0.0 0.0 0.00 0.00 0.00 87 1010.2
20260504002517 55 82 0.0 0.0 0.00 0.00 0.00 86 1010.2
20260504002435 55 213 0.0 0.0 0.00 0.00 0.00 86 1010.2
20260504002033 55 160 0.0 0.0 0.00 0.00 0.00 86 1010.3
20260504001933 55 51 0.0 0.0 0.00 0.00 0.00 86 1010.3
20260504001527 55 68 0.0 0.0 0.00 0.00 0.00 86 1010.4
20260504001435 55 82 0.0 0.0 0.00 0.00 0.00 86 1010.4
20260504001031 55 92 0.0 0.0 0.00 0.00 0.00 86 1010.3
20260504000936 55 96 0.0 0.0 0.00 0.00 0.00 86 1010.4
20260504000534 56 157 0.0 0.0 0.00 0.00 0.00 85 1010.3
20260504000417 56 358 0.0 0.0 0.00 0.00 0.00 85 1010.4
20260504000018 56 113 0.0 0.0 0.00 0.00 0.00 85 1010.5
20260503235919 56 122 0.0 0.0 0.00 0.00 0.00 85 1010.5
20260503235520 56 23 0.0 0.0 0.00 0.00 0.00 84 1010.4
20260503235419 56 288 0.0 0.0 0.00 0.00 0.00 84 1010.4
20260503235017 56 307 0.0 0.0 0.00 0.00 0.00 83 1010.4
20260503234918 56 322 0.0 0.0 0.00 0.00 0.00 83 1010.3
20260503234516 57 87 0.0 0.0 0.00 0.00 0.00 82 1010.3
20260503234418 57 158 0.0 0.0 0.00 0.00 0.00 82 1010.4
20260503234017 58 215 0.0 0.0 0.00 0.00 0.00 81 1010.4
20260503233920 58 278 0.0 0.0 0.00 0.00 0.00 81 1010.4
20260503233521 59 290 0.0 0.0 0.00 0.00 0.00 80 1010.5
20260503233420 59 278 0.0 0.0 0.00 0.00 0.00 80 1010.4
20260503233019 59 14 0.0 0.0 0.00 0.00 0.00 80 1010.3
20260503232919 59 316 0.0 0.0 0.00 0.00 0.00 80 1010.3
20260503232515 60 293 0.0 0.0 0.00 0.00 0.00 78 1010.3
20260503232434 60 294 0.0 0.0 0.00 0.00 0.00 78 1010.2
20260503232032 61 7 0.0 0.0 0.00 0.00 0.00 77 1010.3
20260503231931 61 300 0.0 0.0 0.00 0.00 0.00 77 1010.3
20260503231525 62 300 0.0 0.0 0.00 0.00 0.00 77 1010.3
20260503231430 62 151 0.0 0.0 0.00 0.00 0.00 77 1010.2
20260503231024 63 263 0.0 0.0 0.00 0.00 0.00 75 1010.3
20260503230928 63 326 0.0 0.0 0.00 0.00 0.00 76 1010.3
20260503230522 63 64 0.0 0.0 0.00 0.00 0.00 76 1010.3
20260503230422 63 122 0.0 0.0 0.00 0.00 0.00 76 1010.3
20260503230032 63 133 0.0 0.0 0.00 0.00 0.00 76 1010.2
20260503225929 63 255 0.0 0.0 0.00 0.00 0.00 76 1010.3
20260503225528 64 291 0.0 0.0 0.00 0.00 0.00 75 1010.3
20260503225430 64 229 0.0 0.0 0.00 0.00 0.00 75 1010.4
20260503225031 64 283 0.0 0.0 0.00 0.00 0.00 75 1010.4
20260503224932 64 327 0.0 0.0 0.00 0.00 0.00 75 1010.3
20260503224531 65 300 0.0 0.0 0.00 0.00 0.00 74 1010.4
20260503224431 65 288 0.0 0.0 0.00 0.00 0.00 74 1010.4
20260503224028 65 290 0.0 0.0 0.00 0.00 0.00 73 1010.5
20260503223926 66 319 0.0 0.0 0.00 0.00 0.00 73 1010.5
20260503223524 66 298 0.0 0.0 0.00 0.00 0.00 72 1010.6
20260503223424 66 271 0.0 0.0 0.00 0.00 0.00 73 1010.7
20260503223024 66 282 0.0 0.0 0.00 0.00 0.00 72 1010.7
20260503222926 66 271 0.0 0.0 0.00 0.00 0.00 73 1010.8
20260503222525 66 194 0.0 0.0 0.00 0.00 0.00 73 1010.7
20260503222426 66 315 0.0 0.0 0.00 0.00 0.00 72 1010.8
20260503222027 66 278 0.0 0.0 0.00 0.00 0.00 72 1010.9
20260503221929 66 288 0.0 0.0 0.00 0.00 0.00 73 1011.0
20260503221525 66 304 0.0 0.0 0.00 0.00 0.00 73 1011.0
20260503221432 66 188 0.0 0.0 0.00 0.00 0.00 74 1011.0
20260503221028 65 294 0.0 0.0 0.00 0.00 0.00 74 1011.0
20260503220931 65 302 0.0 0.0 0.00 0.00 0.00 75 1011.0
20260503220528 65 280 0.0 0.0 0.00 0.00 0.00 75 1011.0
20260503220412 65 269 0.0 0.0 0.00 0.00 0.00 75 1011.0
20260503220016 64 236 0.0 0.0 0.00 0.00 0.00 74 1011.0
20260503215917 64 268 0.0 0.0 0.00 0.00 0.00 74 1011.1
20260503215518 64 285 0.0 0.0 0.00 0.00 0.00 74 1011.1
20260503215418 64 283 0.0 0.0 0.00 0.00 0.00 74 1011.0
20260503215014 65 263 0.0 0.0 0.00 0.00 0.00 73 1011.0
20260503214933 65 304 0.0 0.0 0.00 0.00 0.00 73 1011.0
20260503214531 65 306 0.0 0.0 0.00 0.00 0.00 73 1010.9
20260503214432 65 302 0.0 0.0 0.00 0.00 0.00 73 1010.9
20260503214032 65 280 0.0 0.0 0.00 0.00 0.00 71 1010.9
20260503213933 66 306 0.0 0.0 0.00 0.00 0.00 71 1010.9
20260503213532 66 313 0.0 0.0 0.00 0.00 0.00 71 1010.9
20260503213412 67 285 0.0 0.0 0.00 0.00 0.00 70 1010.8
20260503213014 67 310 0.0 0.0 0.00 0.00 0.00 71 1010.8
20260503212915 67 292 0.0 0.0 0.00 0.00 0.00 70 1010.8
20260503212514 68 280 0.0 0.0 0.00 0.00 0.00 71 1010.8
20260503212415 67 289 0.0 0.0 0.00 0.00 0.00 71 1010.9
20260503212015 67 237 0.0 0.0 0.00 0.00 0.00 72 1010.8
20260503211937 67 297 0.0 0.0 0.00 0.00 0.00 72 1010.9
20260503211529 67 321 0.0 0.0 0.00 0.00 0.00 71 1011.0
20260503211433 67 287 0.0 0.0 0.00 0.00 0.00 72 1011.0
20260503211030 66 297 0.0 0.0 0.00 0.00 0.00 72 1011.0
20260503210932 66 296 0.0 0.0 0.00 0.00 0.00 71 1011.0
20260503210533 66 279 0.0 0.0 0.00 0.00 0.00 71 1011.0
20260503210413 66 264 0.0 0.0 0.00 0.00 0.00 71 1011.0
20260503210019 67 295 0.0 0.0 0.00 0.00 0.00 69 1011.0
20260503205920 68 274 0.0 0.0 0.00 0.00 0.00 70 1011.0
20260503205517 69 281 0.0 0.0 0.00 0.00 0.00 67 1010.9
20260503205418 70 277 0.0 0.0 0.00 0.00 0.00 66 1010.9
20260503205018 71 303 0.0 0.0 0.00 0.00 0.00 66 1010.9
20260503204919 71 319 0.0 0.0 0.00 0.00 0.00 66 1010.9
20260503204516 72 301 0.0 0.0 0.00 0.00 0.00 66 1010.9
20260503204417 72 276 0.0 0.0 0.00 0.00 0.00 66 1010.9
20260503204017 71 292 0.0 0.0 0.00 0.00 0.00 69 1011.0
20260503203918 71 293 0.0 0.0 0.00 0.00 0.00 68 1010.9
20260503203520 70 327 0.0 0.0 0.00 0.00 0.00 70 1010.9
20260503203418 70 342 0.0 0.0 0.00 0.00 0.00 70 1010.9
20260503203014 69 287 0.0 0.0 0.00 0.00 0.00 72 1010.9
20260503202934 69 287 0.0 0.0 0.00 0.00 0.00 70 1010.9
20260503202531 69 283 0.0 0.0 0.00 0.00 0.00 70 1010.8
20260503202430 69 281 0.0 0.0 0.00 0.00 0.00 69 1010.8
20260503202026 70 283 0.0 0.0 0.00 0.00 0.00 71 1010.9
20260503201929 70 303 0.0 0.0 0.00 0.00 0.00 70 1010.9
20260503201524 69 122 0.0 0.0 0.00 0.00 0.00 72 1011.1
20260503201429 69 122 0.0 0.0 0.00 0.00 0.00 72 1011.0
20260503201024 67 148 0.0 0.0 0.00 0.00 0.00 74 1011.1
20260503200925 67 261 0.0 0.0 0.00 0.00 0.00 75 1011.1
20260503200525 66 319 0.0 0.0 0.00 0.00 0.00 75 1011.1
20260503200426 65 302 0.0 0.0 0.00 0.00 0.00 75 1011.2
20260503200015 64 230 0.0 0.0 0.00 0.00 0.00 78 1011.4
20260503195917 64 231 0.0 0.0 0.00 0.00 0.00 78 1011.3
20260503195515 63 305 0.0 0.0 0.00 0.00 0.00 78 1011.4
20260503195414 63 330 0.0 0.0 0.00 0.00 0.00 78 1011.5
20260503195014 62 2 0.0 0.0 0.00 0.00 0.00 78 1011.5
20260503194934 62 296 0.0 0.0 0.00 0.00 0.00 78 1011.4
20260503194533 62 125 0.0 0.0 0.00 0.00 0.00 78 1011.6
20260503194416 62 244 0.0 0.0 0.00 0.00 0.00 78 1011.4
20260503194014 62 321 0.0 0.0 0.00 0.00 0.00 79 1011.4
20260503193916 61 120 0.0 0.0 0.00 0.00 0.00 79 1011.4
20260503193516 61 54 0.0 0.0 0.00 0.00 0.00 78 1011.5
20260503193435 61 57 0.0 0.0 0.00 0.00 0.00 78 1011.5
20260503193031 61 297 0.0 0.0 0.00 0.00 0.00 78 1011.4
20260503192930 61 278 0.0 0.0 0.00 0.00 0.00 79 1011.4
20260503192527 61 153 0.0 0.0 0.00 0.00 0.00 78 1011.4
20260503192428 61 296 0.0 0.0 0.00 0.00 0.00 78 1011.3
20260503192024 61 288 0.0 0.0 0.00 0.00 0.00 77 1011.2
20260503191927 61 297 0.0 0.0 0.00 0.00 0.00 77 1011.3
20260503191523 62 285 0.0 0.0 0.00 0.00 0.00 76 1011.3
20260503191429 63 269 0.0 0.0 0.00 0.00 0.00 77 1011.3
20260503191025 63 294 0.0 0.0 0.00 0.00 0.00 76 1011.4
20260503190926 63 299 0.0 0.0 0.00 0.00 0.00 76 1011.4
20260503190527 63 342 0.0 0.0 0.00 0.00 0.00 78 1011.4
20260503190426 63 55 0.0 0.0 0.00 0.00 0.00 78 1011.3
20260503190033 62 119 0.0 0.0 0.00 0.00 0.00 78 1011.3
20260503185913 62 290 0.0 0.0 0.00 0.00 0.00 78 1011.3
20260503185513 62 264 0.0 0.0 0.00 0.00 0.00 77 1011.3
20260503185415 62 295 0.0 0.0 0.00 0.00 0.00 77 1011.3
20260503185017 62 243 0.0 0.0 0.00 0.00 0.00 77 1011.4
20260503184918 62 281 0.0 0.0 0.00 0.00 0.00 78 1011.4
20260503184519 62 281 0.0 0.0 0.00 0.00 0.00 78 1011.3
20260503184422 62 94 0.0 0.0 0.00 0.00 0.00 78 1011.3
20260503184021 61 163 0.0 0.0 0.00 0.00 0.00 78 1011.2
20260503183923 61 226 0.0 0.0 0.00 0.00 0.00 78 1011.2
20260503183523 62 298 0.0 0.0 0.00 0.00 0.00 78 1011.3
20260503183421 62 259 0.0 0.0 0.00 0.00 0.00 78 1011.3
20260503183019 62 324 0.0 0.0 0.00 0.00 0.00 78 1011.2
20260503182920 62 171 0.0 0.0 0.00 0.00 0.00 78 1011.3
20260503182520 62 176 0.0 0.0 0.00 0.00 0.00 77 1011.2
20260503182422 62 285 0.0 0.0 0.00 0.00 0.00 78 1011.2
20260503182017 61 237 0.0 0.0 0.00 0.00 0.00 78 1011.2
20260503181923 61 169 0.0 0.0 0.00 0.00 0.00 78 1011.3
20260503181519 61 291 0.0 0.0 0.00 0.00 0.00 78 1011.2
20260503181423 62 62 0.0 0.0 0.00 0.00 0.00 76 1011.2
20260503181018 62 207 0.0 0.0 0.00 0.00 0.00 77 1011.1
20260503180921 62 301 0.0 0.0 0.00 0.00 0.00 77 1011.1
20260503180522 63 263 0.0 0.0 0.00 0.00 0.00 77 1011.1
20260503180421 63 298 0.0 0.0 0.00 0.00 0.00 77 1011.1
20260503180031 63 200 0.0 0.0 0.00 0.00 0.00 77 1011.3
20260503175913 63 291 0.0 0.0 0.00 0.00 0.00 78 1011.3
20260503175513 63 304 0.0 0.0 0.00 0.00 0.00 78 1011.3
20260503175416 63 294 0.0 0.0 0.00 0.00 0.00 78 1011.3
20260503175015 62 355 0.0 0.0 0.00 0.00 0.00 78 1011.2
20260503174915 62 282 0.0 0.0 0.00 0.00 0.00 78 1011.2
20260503174517 62 103 0.0 0.0 0.00 0.00 0.00 79 1011.3
20260503174418 62 278 0.0 0.0 0.00 0.00 0.00 79 1011.3
20260503174017 62 277 0.0 0.0 0.00 0.00 0.00 80 1011.2
20260503173919 62 221 0.0 0.0 0.00 0.00 0.00 80 1011.3
20260503173520 62 303 0.0 0.0 0.00 0.00 0.00 80 1011.3
20260503173417 62 273 0.0 0.0 0.00 0.00 0.00 80 1011.2
20260503173016 61 290 0.0 0.0 0.00 0.00 0.00 80 1011.1
20260503172916 61 277 0.0 0.0 0.00 0.00 0.00 81 1011.2
20260503172518 61 301 0.0 0.0 0.00 0.00 0.00 80 1011.2
20260503172419 62 277 0.0 0.0 0.00 0.00 0.00 80 1011.1
20260503172018 62 314 0.0 0.0 0.00 0.00 0.00 83 1011.0
20260503171919 62 284 0.0 0.0 0.00 0.00 0.00 83 1011.0
20260503171516 61 177 0.0 0.0 0.00 0.00 0.00 84 1011.1
20260503171421 61 297 0.0 0.0 0.00 0.00 0.00 84 1011.0
20260503171016 61 295 0.0 0.0 0.00 0.00 0.00 87 1010.9
20260503170920 60 295 0.0 0.0 0.00 0.00 0.00 87 1010.9
20260503170516 60 288 0.0 0.0 0.00 0.00 0.00 90 1011.0
20260503170417 60 304 0.0 0.0 0.00 0.00 0.00 91 1011.0
20260503150925 51 101 0.0 0.0 0.00 0.00 0.00 94 1010.7
20260503150525 50 102 0.0 0.0 0.00 0.00 0.00 94 1010.7
20260503150423 50 101 0.0 0.0 0.00 0.00 0.00 94 1010.6
20260503131419 46 102 0.0 0.0 0.00 0.00 0.00 93 1010.5
20260503131019 45 102 0.0 0.0 0.00 0.00 0.00 93 1010.5
20260503130919 45 101 0.0 0.0 0.00 0.00 0.00 93 1010.5
20260503130520 45 101 0.0 0.0 0.00 0.00 0.00 93 1010.4
20260503130421 46 102 0.0 0.0 0.00 0.00 0.00 93 1010.4
20260503110529 46 101 0.0 0.0 0.00 0.00 0.00 93 1011.0
20260503110428 46 101 0.0 0.0 0.00 0.00 0.00 93 1011.0
20260503090423 47 102 0.0 0.0 0.00 0.00 0.00 92 1011.8
20260503081517 47 102 0.0 0.0 0.00 0.00 0.00 92 1012.4
20260503081417 47 101 0.0 0.0 0.00 0.00 0.00 92 1012.3
20260503081017 48 102 0.0 0.0 0.00 0.00 0.00 92 1012.3
20260503080527 48 102 0.0 0.0 0.00 0.00 0.00 92 1012.3
20260503080425 48 102 0.0 0.0 0.00 0.00 0.00 92 1012.3
20260503072934 49 102 0.0 0.0 0.00 0.00 0.00 92 1012.6
20260503072529 49 102 0.0 0.0 0.00 0.00 0.00 92 1012.5
20260503072435 49 102 0.0 0.0 0.00 0.00 0.00 92 1012.6